Regional Weather Roundup
Issued by NWS

Home | Current Version | Previous Version | Graphics & Text | Print | Product List | Glossary On
Versions: 1 2 3 4 5 6 7 8 9 10 11 12 13 14 15 16 17 18 19 20 21 22 23 24 25 26 27
000
ASUS45 KPSR 251510
RWRAZ

ARIZONA HOURLY REGIONAL WEATHER ROUNDUP
NATIONAL WEATHER SERVICE PHOENIX AZ
800 AM MST SAT MAR 25 2017

NOTE: FAIR INDICATES FEW OR NO CLOUDS BELOW 12,000 FEET WITH NO
SIGNIFICANT WEATHER AND/OR OBSTRUCTIONS TO VISIBILITY.

AZZ001>003-036-251600-
NORTHWEST ARIZONA

CITY           SKY/WX    TMP DP  RH WIND       PRES   REMARKS
BULLHEAD CITY  CLOUDY    63  34  34 S3        29.97R
KINGMAN        CLOUDY    54  23  30 SE9       30.01F
$$

AZZ004>008-015-016-018-251600-
NORTH CENTRAL ARIZONA

CITY           SKY/WX    TMP DP  RH WIND       PRES   REMARKS
GRAND CANYON   CLOUDY    36  32  85 SE5       30.09F WCI  32
WILLIAMS       CLOUDY    43  27  52 S5G12     30.10F
PRESCOTT       CLOUDY    49  31  49 SE5       30.08F
FLAGSTAFF      CLOUDY    35  31  85 CALM      30.12F
PAYSON         CLOUDY    46  34  61 CALM      30.15R
PAGE           CLOUDY    50  34  54 CALM      30.03S
$$

AZZ009>014-017-251600-
NORTHEAST ARIZONA

CITY           SKY/WX    TMP DP  RH WIND       PRES   REMARKS
WINSLOW        CLOUDY    43  30  60 E12       30.10S
SAINT JOHNS    MOSUNNY   38  21  50 CALM      30.12S
WINDOW ROCK    PTSUNNY   36  26  67 CALM      30.16S
SHOW LOW       MOSUNNY   46  27  46 S14       30.14R
$$

AZZ023-251600-
GREATER PHOENIX AREA

CITY           SKY/WX    TMP DP  RH WIND       PRES   REMARKS
PHOENIX        CLOUDY    60  40  47 E10       30.00S
BUCKEYE        CLOUDY    52  41  66 CALM      30.02R
GLENDALE       PTSUNNY   57  41  54 CALM      30.02F
LUKE AFB       CLOUDY    55  42  62 NW5       30.01R
DEER VALLEY    CLOUDY    57  38  48 E8        30.00F
SCOTTSDALE     CLOUDY    57  41  55 SE3       30.03R
MESA-FALCON    SUNNY    N/A N/A N/A NE7       30.01R
MESA-GATEWAY   PTSUNNY   55  39  54 E7        30.04R
CHANDLER       SUNNY     57  41  54 W6        30.03R
$$

AZZ027-028-251600-
SOUTHWEST MARICOPA COUNTY AND PINAL COUNTY

CITY           SKY/WX    TMP DP  RH WIND       PRES   REMARKS
CASA GRANDE    NOT AVBL
GILA BEND      PTSUNNY   59  28  30 CALM      30.00R
$$

AZZ503-504-507>509-251600-
SOUTHEAST ARIZONA

CITY           SKY/WX    TMP DP  RH WIND       PRES   REMARKS
TUCSON         SUNNY     53  22  29 SE9       30.09R
DAVIS-MONTHAN  PTSUNNY   56  23  27 SE10      30.07S
RYAN FIELD     SUNNY    N/A N/A N/A E6        30.09R
NOGALES        SUNNY     46  20  35 S3        30.10S
SIERRA VISTA   SUNNY     56  22  26 N3        30.14R
DOUGLAS        SUNNY     49  22  34 CALM      30.13S
SAFFORD        SUNNY     55  31  39 E10       30.09R
$$

AZZ020-021-025-026-031-251600-
SOUTHWEST ARIZONA

CITY           SKY/WX    TMP DP  RH WIND       PRES   REMARKS
YUMA           PTSUNNY   63  45  51 SW5       29.99R
$$

CAZ031-033-041-043-047-048-061-251600-
SOUTHERN CALIFORNIA

CITY           SKY/WX    TMP DP  RH WIND       PRES   REMARKS
DOWNTOWN L.A.  SUNNY     58  50  75 CALM      30.11S
L.A. AIRPORT   MOSUNNY   58  51  78 NW5       30.12S
SAN DIEGO      PTSUNNY   58  51  78 NE3       30.16R
BURBANK        SUNNY     54  47  77 E5        30.10S
ONTARIO        MOSUNNY   53  50  89 CALM      30.12R
RIVERSIDE      SUNNY     53  49  86 NE3       30.13R
PALM SPRINGS   SUNNY     64  42  44 VRB3      29.99R
EL CENTRO NAS  MOSUNNY   66  24  20 SW13      30.02R
IMPERIAL       SUNNY     62  34  35 W8        30.00R
BLYTHE         SUNNY     63  38  39 CALM      29.97R
NEEDLES        MOSUNNY   67  33  28 S7        29.97S
$$

NVZ020-UTZ003-251600-
SOUTHERN NEVADA-UTAH

CITY           SKY/WX    TMP DP  RH WIND       PRES   REMARKS
LAS VEGAS      MOSUNNY   62  33  33 SW14G23   29.94R
SALT LAKE CITY LGT RAIN  46  42  86 NW10      30.02S
$$

NMZ009-TXZ055-251600-
NEW MEXICO-WEST TEXAS

CITY           SKY/WX    TMP DP  RH WIND       PRES   REMARKS
ALBUQUERQUE    CLOUDY    46  24  42 N5        30.16S
EL PASO        SUNNY     54  20  26 CALM      30.14R
$$


........................KEY........................
SKY/WX - SKY CONDITION/WEATHER
TMP    - TEMPERATURE IN FAHRENHEIT
DP     - DEW POINT IN FAHRENHEIT
RH     - RELATIVE HUMIDITY IN PERCENT
WIND   - DIRECTION AND SPEED IN MILES PER HOUR (MPH)
VRB    - VARIABLE WIND DIRECTION
PRES   - MEAN SEA LEVEL PRESSURE IN INCHES OF MERCURY
         F - FALLING PRESSURE   R - RISING PRESSURE
         S - STEADY PRESSURE
VSB    - VISIBILITY IN MILES
HX     - HEAT INDEX IN FAHRENHEIT
WCI    - WIND CHILL INDEX IN FAHRENHEIT
TC     - TEMPERATURE IN CELSIUS WHICH IS ALSO KNOWN AS
         TEMPERATURE IN CENTIGRADE
AFB    - AIR FORCE BASE
         LUKE AFB IS LUKE AIR FORCE BASE
         DAVIS-MONTHAN IS DAVIS-MONTHAN AIR FORCE BASE
NAS    - NAVAL AIR STATION
         EL CENTRO NAS IS EL CENTRO NAVAL AIR STATION
N/A    - NOT AVAILABLE





USA.gov is the U.S. government's official web portal to all federal, state and local government web resources and services.